Date String (YYYY-MM-DD hh:mm:ss) UTC,Instrument flags,Ambient pressure (hPa),Sample flow (lpm),Bypass flow (lpm),Sample temperature (°C),Ambient temperature (°C),ASC tube jacket temperature (°C),LED temperature (°C),Box temperature (°C),Sample RH (%),Span deviation,Mass concentration (μg/m³),Mass concentration (μg/m³),Mass concentration (μg/m³)
DateTimeUTC,F1_M11,P_M11,Q1_M11,Q2_M11,T1_M11,T2_M11,T3_M11,T4_M11,T5_M11,U1_M11,ZSPAN_M11,X0_M11,X2_M11,X1_M11
2022-10-28 21:00:00,,0830.6,4.99,0.00,28.4,27.3,00.0,37.0,30.3,10.4,0000.0,0009.51,0005.36,0004.98
2022-10-28 21:01:00,,0830.6,5.00,0.00,28.4,27.3,00.0,37.1,30.3,10.3,0000.0,0009.45,0005.37,0005.01
2022-10-28 21:02:00,,0830.6,5.02,0.00,28.4,27.3,00.0,37.1,30.4,10.4,0000.0,0009.60,0005.43,0005.06
2022-10-28 21:03:00,,0830.6,4.99,0.00,28.4,27.3,00.0,37.1,30.3,10.3,0000.0,0010.78,0005.50,0005.10
2022-10-28 21:04:00,,0830.6,4.99,0.00,28.5,27.3,00.0,37.1,30.4,10.2,0000.0,0011.16,0005.57,0005.14
2022-10-28 21:05:00,,0830.6,5.02,0.00,28.5,27.3,00.0,37.1,30.4,10.3,0000.0,0011.07,0005.65,0005.17
2022-10-28 21:06:00,,0830.6,4.99,0.00,28.5,27.3,00.0,37.1,30.4,10.4,0000.0,0010.52,0005.63,0005.19
2022-10-28 21:07:00,,0830.6,4.99,0.00,28.5,27.3,00.0,37.2,30.4,10.4,0000.0,0010.35,0005.69,0005.24
2022-10-28 21:08:00,,0830.6,4.99,0.00,28.5,27.4,00.0,37.2,30.4,10.5,0000.0,0010.39,0005.76,0005.31
2022-10-28 21:09:00,,0830.6,5.02,0.00,28.5,27.4,00.0,37.2,30.4,10.5,0000.0,0010.39,0005.82,0005.38
2022-10-28 21:10:00,,0830.6,4.99,0.00,28.5,27.4,00.0,37.2,30.4,10.3,0000.0,0010.44,0005.87,0005.44
2022-10-28 21:11:00,,0830.6,5.00,0.00,28.5,27.4,00.0,37.2,30.4,10.3,0000.0,0010.21,0005.94,0005.49
2022-10-28 21:12:00,,0830.6,4.99,0.00,28.6,27.4,00.0,37.2,30.4,10.6,0000.0,0010.31,0006.01,0005.55
2022-10-28 21:13:00,,0830.6,5.02,0.00,28.6,27.4,00.0,37.3,30.5,11.0,0000.0,0010.38,0006.10,0005.60
2022-10-28 21:14:00,,0830.6,5.00,0.00,28.6,27.4,00.0,37.3,30.5,11.1,0000.0,0009.47,0006.21,0005.69
2022-10-28 21:15:00,,0830.6,4.99,0.00,28.6,27.4,00.0,37.3,30.5,11.0,0000.0,0010.08,0006.32,0005.79
2022-10-28 21:16:00,,0830.6,5.00,0.00,28.6,27.4,00.0,37.3,30.5,11.0,0000.0,0011.43,0006.41,0005.90
2022-10-28 21:17:00,,0830.6,5.00,0.00,28.6,27.5,00.0,37.3,30.5,11.0,0000.0,0012.33,0006.55,0006.00
2022-10-28 21:18:00,,0830.6,5.00,0.00,28.6,27.4,00.0,37.3,30.5,11.2,0000.0,0012.92,0006.66,0006.09
2022-10-28 21:19:00,,0830.6,5.00,0.00,28.6,27.5,00.0,37.3,30.5,11.2,0000.0,0013.45,0006.79,0006.18
2022-10-28 21:20:00,,0830.6,4.99,0.00,28.7,27.5,00.0,37.3,30.5,11.3,0000.0,0013.75,0006.93,0006.28
2022-10-28 21:21:00,,0830.6,5.01,0.00,28.7,27.5,00.0,37.4,30.6,11.1,0000.0,0013.97,0007.08,0006.39
2022-10-28 21:22:00,,0830.6,5.00,0.00,28.7,27.5,00.0,37.4,30.6,11.2,0000.0,0014.26,0007.19,0006.51
2022-10-28 21:23:00,,0830.6,4.99,0.00,28.7,27.5,00.0,37.4,30.6,11.2,0000.0,0015.58,0007.27,0006.59
2022-10-28 21:24:00,,0830.6,5.00,0.00,28.7,27.5,00.0,37.4,30.6,11.1,0000.0,0015.50,0007.28,0006.65
2022-10-28 21:25:00,,0830.6,5.01,0.00,28.7,27.5,00.0,37.4,30.6,11.0,0000.0,0015.35,0007.27,0006.67
2022-10-28 21:26:00,,0830.5,4.99,0.00,28.7,27.5,00.0,37.4,30.6,11.0,0000.0,0015.19,0007.30,0006.71
2022-10-28 21:27:00,,0830.5,4.99,0.00,28.7,27.5,00.0,37.4,30.6,11.0,0000.0,0013.85,0007.32,0006.74
2022-10-28 21:28:00,,0830.5,4.99,0.00,28.7,27.5,00.0,37.4,30.6,10.9,0000.0,0013.17,0007.32,0006.75
2022-10-28 21:29:00,,0830.5,5.01,0.00,28.7,27.5,00.0,37.4,30.6,10.9,0000.0,0012.64,0007.30,0006.76
2022-10-28 21:30:00,,0830.5,5.00,0.00,28.7,27.5,00.0,37.4,30.6,11.0,0000.0,0012.33,0007.30,0006.79
2022-10-28 21:31:00,,0830.6,5.00,0.00,28.7,27.6,00.0,37.4,30.6,10.9,0000.0,0012.43,0007.30,0006.79
2022-10-28 21:32:00,,0830.6,5.00,0.00,28.8,27.6,00.0,37.5,30.7,11.2,0000.0,0013.00,0007.29,0006.79
2022-10-28 21:33:00,,0830.6,5.00,0.00,28.8,27.6,00.0,37.5,30.7,11.1,0000.0,0013.43,0007.29,0006.78
2022-10-28 21:34:00,,0830.6,5.01,0.00,28.8,27.6,00.0,37.5,30.7,10.9,0000.0,0012.35,0007.33,0006.81
2022-10-28 21:35:00,,0830.6,5.01,0.00,28.8,27.7,00.0,37.5,30.7,10.8,0000.0,0012.31,0007.36,0006.83
2022-10-28 21:36:00,,0830.6,5.00,0.00,28.8,27.7,00.0,37.5,30.7,11.0,0000.0,0012.87,0007.39,0006.85
2022-10-28 21:37:00,,0830.6,5.00,0.00,28.8,27.7,00.0,37.5,30.7,10.9,0000.0,0012.87,0007.38,0006.85
2022-10-28 21:38:00,,0830.6,4.99,0.00,28.8,27.7,00.0,37.5,30.7,10.6,0000.0,0013.32,0007.39,0006.87
2022-10-28 21:39:00,,0830.5,5.01,0.00,28.9,27.7,00.0,37.5,30.7,10.7,0000.0,0013.36,0007.38,0006.89
2022-10-28 21:40:00,,0830.6,4.99,0.00,28.9,27.7,00.0,37.5,30.7,10.7,0000.0,0013.40,0007.39,0006.89
2022-10-28 21:41:00,,0830.6,5.00,0.00,28.9,27.7,00.0,37.6,30.8,10.7,0000.0,0013.31,0007.37,0006.89
2022-10-28 21:42:00,,0830.6,5.00,0.00,28.9,27.7,00.0,37.6,30.8,10.9,0000.0,0013.27,0007.35,0006.89
2022-10-28 21:43:00,,0830.6,4.99,0.00,28.9,27.7,00.0,37.6,30.8,10.6,0000.0,0012.75,0007.35,0006.89
2022-10-28 21:44:00,,0830.6,5.01,0.00,28.9,27.7,00.0,37.6,30.8,10.4,0000.0,0012.22,0007.39,0006.92
2022-10-28 21:45:00,,0830.6,5.00,0.00,28.9,27.7,00.0,37.6,30.8,10.2,0000.0,0012.11,0007.41,0006.92
2022-10-28 21:46:00,,0830.6,4.99,0.00,28.9,27.7,00.0,37.6,30.8,10.0,0000.0,0012.12,0007.35,0006.85
2022-10-28 21:47:00,,0830.6,5.02,0.00,28.9,27.7,00.0,37.6,30.8,09.8,0000.0,0011.44,0007.27,0006.75
2022-10-28 21:48:00,,0830.6,5.00,0.00,28.9,27.7,00.0,37.6,30.8,09.6,0000.0,0010.96,0007.13,0006.63
2022-10-28 21:49:00,,0830.6,4.99,0.00,28.9,27.6,00.0,37.6,30.8,09.6,0000.0,0010.53,0006.98,0006.50
2022-10-28 21:50:00,,0830.6,5.02,0.00,28.9,27.6,00.0,37.7,30.8,09.6,0000.0,0010.67,0006.85,0006.38
2022-10-28 21:51:00,,0830.6,5.00,0.00,28.9,27.6,00.0,37.7,30.7,09.6,0000.0,0010.72,0006.74,0006.28
2022-10-28 21:52:00,,0830.6,4.99,0.00,28.9,27.5,00.0,37.7,30.7,09.7,0000.0,0010.69,0006.67,0006.19
2022-10-28 21:53:00,,0830.6,5.00,0.00,28.9,27.5,00.0,37.7,30.7,09.6,0000.0,0010.39,0006.59,0006.10
2022-10-28 21:54:00,,0830.6,5.02,0.00,28.9,27.5,00.0,37.7,30.7,09.6,0000.0,0010.35,0006.46,0005.99
2022-10-28 21:55:00,,0830.6,4.99,0.00,28.9,27.5,00.0,37.7,30.7,09.4,0000.0,0010.44,0006.29,0005.84
2022-10-28 21:56:00,,0830.6,4.99,0.00,28.9,27.5,00.0,37.7,30.7,09.3,0000.0,0010.88,0006.16,0005.71
2022-10-28 21:57:00,,0830.6,5.02,0.00,28.9,27.5,00.0,37.7,30.7,09.3,0000.6,0010.87,0006.10,0005.66
2022-10-28 21:58:00,,0830.6,5.00,0.00,28.9,27.5,00.0,37.7,30.7,09.6,0000.0,0011.17,0006.05,0005.64
2022-10-28 21:59:00,,0830.6,4.99,0.00,28.9,27.5,00.0,37.7,30.7,09.6,0000.0,0011.27,0006.05,0005.63
